Hourly Weather Barranco de Loba

Today, 28 October, Wednesday

Time Temperature Precipitation Wind Pressure Humidity
00:00 +24°C° 0.1 mm 0 mps 754 mmHg 95%
01:00 +24°C° 0.1 mm 0 mps 754 mmHg 97%
02:00 +23°C° 0 mm 0 mps 754 mmHg 97%
03:00 +23°C° 0 mm 0 mps 754 mmHg 97%
04:00 +23°C° 0 mm 0 mps 754 mmHg 97%
05:00 +24°C° 0 mm 0 mps 754 mmHg 96%
06:00 +24°C° 0 mm 0 mps 755 mmHg 95%
07:00 +25°C° 0 mm 0 mps 755 mmHg 94%
08:00 +27°C° 0 mm 0 mps 755 mmHg 85%
09:00 +29°C° 0 mm 0 mps 755 mmHg 75%
10:00 +32°C° 0 mm 0 mps 756 mmHg 65%
11:00 +34°C° 0.1 mm 1 mps 754 mmHg 62%
12:00 +34°C° 0.1 mm 1 mps 753 mmHg 60%
13:00 +34°C° 0.1 mm 1 mps 752 mmHg 57%
14:00 +34°C° 0.3 mm 1 mps 752 mmHg 64%
15:00 +33°C° 0.3 mm 1 mps 752 mmHg 71%
16:00 +32°C° 0.3 mm 1 mps 751 mmHg 77%
17:00 +30°C° 3.1 mm 1 mps 752 mmHg 83%
18:00 +29°C° 3.1 mm 1 mps 753 mmHg 89%
19:00 +27°C° 3.1 mm 1 mps 753 mmHg 94%
20:00 +27°C° 1.1 mm 1 mps 754 mmHg 94%
21:00 +27°C° 1.1 mm 1 mps 755 mmHg 95%
22:00 +26°C° 1.1 mm 1 mps 755 mmHg 95%
23:00 +26°C° 0.9 mm 1 mps 755 mmHg 95%

Tomorrow, 29 October, Thursday

Time Temperature Precipitation Wind Pressure Humidity
00:00 +26°C° 0.9 mm 1 mps 755 mmHg 96%
01:00 +25°C° 0.9 mm 1 mps 755 mmHg 96%
02:00 +25°C° 0.5 mm 1 mps 754 mmHg 97%
03:00 +25°C° 0.5 mm 1 mps 754 mmHg 97%
04:00 +25°C° 0.5 mm 1 mps 754 mmHg 98%
05:00 +23°C° 1.1 mm 0 mps 755 mmHg 98%
06:00 +23°C° 1.1 mm 0 mps 756 mmHg 98%
07:00 +23°C° 1.1 mm 0 mps 756 mmHg 97%
08:00 +25°C° 0.6 mm 0 mps 756 mmHg 93%
09:00 +27°C° 0.6 mm 0 mps 756 mmHg 88%
10:00 +28°C° 0.6 mm 0 mps 756 mmHg 83%
11:00 +29°C° 0.9 mm 0 mps 755 mmHg 78%
12:00 +30°C° 0.9 mm 0 mps 754 mmHg 74%
13:00 +31°C° 0.9 mm 0 mps 753 mmHg 69%
14:00 +33°C° 0.2 mm 1 mps 753 mmHg 71%
15:00 +32°C° 0.2 mm 1 mps 753 mmHg 72%
16:00 +32°C° 0.2 mm 1 mps 752 mmHg 74%
17:00 +30°C° 0.4 mm 1 mps 753 mmHg 81%
18:00 +28°C° 0.4 mm 1 mps 754 mmHg 87%
19:00 +25°C° 0.4 mm 0 mps 754 mmHg 94%
20:00 +25°C° 1.2 mm 0 mps 755 mmHg 95%
21:00 +24°C° 1.2 mm 0 mps 755 mmHg 96%
22:00 +24°C° 1.2 mm 0 mps 756 mmHg 96%
23:00 +24°C° 2.8 mm 0 mps 755 mmHg 97%

Day after tomorrow, 30 October, Friday

Time Temperature Precipitation Wind Pressure Humidity
00:00 +23°C° 2.8 mm 0 mps 755 mmHg 98%
01:00 +23°C° 2.8 mm 0 mps 755 mmHg 99%
02:00 +23°C° 1 mm 0 mps 755 mmHg 98%
03:00 +23°C° 1 mm 0 mps 755 mmHg 98%
04:00 +23°C° 1 mm 0 mps 755 mmHg 98%
05:00 +23°C° 0.1 mm 0 mps 756 mmHg 97%
06:00 +24°C° 0.1 mm 0 mps 756 mmHg 97%
07:00 +24°C° 0.1 mm 0 mps 757 mmHg 97%
08:00 +26°C° 0.1 mm 0 mps 757 mmHg 88%
09:00 +28°C° 0.1 mm 0 mps 757 mmHg 80%
10:00 +30°C° 0.1 mm 0 mps 757 mmHg 72%
11:00 +32°C° 0 mm 1 mps 756 mmHg 68%
12:00 +33°C° 0 mm 1 mps 755 mmHg 64%
13:00 +35°C° 0 mm 2 mps 754 mmHg 60%
14:00 +32°C° 0.9 mm 2 mps 754 mmHg 69%
15:00 +31°C° 0.9 mm 2 mps 753 mmHg 79%
16:00 +30°C° 0.9 mm 1 mps 753 mmHg 89%
17:00 +29°C° 1.3 mm 1 mps 754 mmHg 91%
18:00 +28°C° 1.3 mm 1 mps 754 mmHg 93%
19:00 +26°C° 1.3 mm 1 mps 755 mmHg 95%
20:00 +26°C° 0.6 mm 1 mps 755 mmHg 96%
21:00 +26°C° 0.6 mm 1 mps 756 mmHg 97%
22:00 +26°C° 0.6 mm 1 mps 756 mmHg 97%
23:00 +23°C° 0.7 mm 0 mps 756 mmHg 98%

31 October, Saturday

Time Temperature Precipitation Wind Pressure Humidity
00:00 +23°C° 0.7 mm 0 mps 756 mmHg 98%
01:00 +23°C° 0.7 mm 0 mps 756 mmHg 98%
02:00 +23°C° 0.7 mm 0 mps 756 mmHg 98%
03:00 +23°C° 0.7 mm 0 mps 756 mmHg 98%
04:00 +23°C° 0.7 mm 0 mps 756 mmHg 98%
05:00 +23°C° 0.2 mm 0 mps 756 mmHg 98%
06:00 +23°C° 0.2 mm 0 mps 757 mmHg 98%
07:00 +24°C° 0.2 mm 0 mps 757 mmHg 97%
08:00 +25°C° 0.8 mm 0 mps 757 mmHg 94%
09:00 +26°C° 0.8 mm 0 mps 757 mmHg 90%
10:00 +28°C° 0.8 mm 0 mps 757 mmHg 86%
11:00 +31°C° 0.6 mm 1 mps 756 mmHg 81%
12:00 +32°C° 0.6 mm 1 mps 755 mmHg 75%
13:00 +33°C° 0.6 mm 1 mps 754 mmHg 69%
14:00 +32°C° 0.9 mm 1 mps 754 mmHg 76%
15:00 +31°C° 0.9 mm 1 mps 754 mmHg 82%
16:00 +30°C° 0.9 mm 1 mps 753 mmHg 89%
17:00 +29°C° 1.2 mm 1 mps 754 mmHg 91%
18:00 +28°C° 1.2 mm 1 mps 754 mmHg 93%
19:00 +26°C° 1.2 mm 1 mps 755 mmHg 95%
20:00 +26°C° 0.5 mm 1 mps 755 mmHg 96%
21:00 +24°C° 0.5 mm 0 mps 756 mmHg 96%
22:00 +24°C° 0.5 mm 0 mps 756 mmHg 97%
23:00 +24°C° 1 mm 0 mps 756 mmHg 97%

1 November, Sunday

Time Temperature Precipitation Wind Pressure Humidity
00:00 +23°C° 1 mm 0 mps 756 mmHg 97%
01:00 +23°C° 1 mm 0 mps 756 mmHg 98%
02:00 +23°C° 1.1 mm 0 mps 755 mmHg 98%
03:00 +23°C° 1.1 mm 0 mps 755 mmHg 98%
04:00 +23°C° 1.1 mm 0 mps 755 mmHg 98%
05:00 +23°C° 0.4 mm 0 mps 756 mmHg 98%
06:00 +23°C° 0.4 mm 0 mps 756 mmHg 98%
07:00 +23°C° 0.4 mm 0 mps 757 mmHg 98%
08:00 +26°C° 0.5 mm 1 mps 757 mmHg 95%
09:00 +27°C° 0.5 mm 1 mps 757 mmHg 92%
10:00 +28°C° 0.5 mm 1 mps 757 mmHg 89%
11:00 +29°C° 0.8 mm 1 mps 756 mmHg 85%
12:00 +30°C° 0.8 mm 1 mps 755 mmHg 81%
13:00 +31°C° 0.8 mm 1 mps 754 mmHg 76%
14:00 +31°C° 0.9 mm 1 mps 754 mmHg 80%
15:00 +29°C° 0.9 mm 0 mps 754 mmHg 83%
16:00 +28°C° 0.9 mm 0 mps 753 mmHg 87%
17:00 +27°C° 1.7 mm 0 mps 754 mmHg 89%
18:00 +26°C° 1.7 mm 0 mps 755 mmHg 92%
19:00 +25°C° 1.7 mm 0 mps 755 mmHg 94%
20:00 +24°C° 1.9 mm 0 mps 756 mmHg 95%
21:00 +26°C° 1.9 mm 1 mps 756 mmHg 96%
22:00 +26°C° 1.9 mm 1 mps 756 mmHg 96%
23:00 +26°C° 1.1 mm 1 mps 756 mmHg 96%

2 November, Monday

Time Temperature Precipitation Wind Pressure Humidity
00:00 +23°C° 1.1 mm 0 mps 756 mmHg 96%
01:00 +23°C° 1.1 mm 0 mps 756 mmHg 96%
02:00 +23°C° 0.3 mm 0 mps 755 mmHg 96%
03:00 +23°C° 0.3 mm 0 mps 755 mmHg 97%
04:00 +23°C° 0.3 mm 0 mps 755 mmHg 97%
05:00 +25°C° 0.1 mm 1 mps 755 mmHg 97%
06:00 +25°C° 0.1 mm 1 mps 756 mmHg 98%
07:00 +25°C° 0.1 mm 1 mps 756 mmHg 98%
08:00 +25°C° 0.1 mm 1 mps 757 mmHg 95%
09:00 +26°C° 0.1 mm 1 mps 757 mmHg 93%
10:00 +26°C° 0.1 mm 1 mps 757 mmHg 91%
11:00 +28°C° 0 mm 1 mps 756 mmHg 84%
12:00 +30°C° 0 mm 1 mps 755 mmHg 77%
13:00 +31°C° 0 mm 1 mps 754 mmHg 70%
14:00 +31°C° 0.2 mm 1 mps 753 mmHg 71%
15:00 +31°C° 0.2 mm 1 mps 753 mmHg 72%
16:00 +31°C° 0.2 mm 1 mps 752 mmHg 74%
17:00 +27°C° 0.7 mm 0 mps 753 mmHg 80%
18:00 +26°C° 0.7 mm 0 mps 753 mmHg 87%
19:00 +24°C° 0.7 mm 0 mps 754 mmHg 94%
20:00 +24°C° 0 mm 0 mps 754 mmHg 94%
21:00 +24°C° 0 mm 0 mps 755 mmHg 95%
22:00 +23°C° 0 mm 0 mps 755 mmHg 95%
23:00 +23°C° 0.6 mm 0 mps 755 mmHg 96%
Show more